| time (UTC) | temp F | wind direction | speed knots | gust knots | rain 1hr in | rain 24hr in | rain mn in | humidity % | barometer mb |
| 20260508060038 | 60 | 154 | 0.9 | 1.7 | 0.00 | 0.00 | 0.00 | 84 | 1018.0 |
| 20260508060017 | 60 | 154 | 0.0 | 1.7 | 0.00 | 0.00 | 0.00 | 84 | 1017.9 |
| 20260508055518 | 60 | 211 | 0.0 | 1.7 | 0.00 | 0.00 | 0.00 | 84 | 1017.9 |
| 20260508055018 | 60 | 252 | 0.9 | 1.7 | 0.00 | 0.00 | 0.00 | 84 | 1017.7 |
| 20260508054527 | 59 | 135 | 0.9 | 3.5 | 0.00 | 0.00 | 0.00 | 83 | 1017.5 |
| 20260508054520 | 59 | 135 | 0.0 | 3.5 | 0.00 | 0.00 | 0.00 | 83 | 1017.4 |
| 20260508054018 | 59 | 144 | 0.9 | 3.5 | 0.00 | 0.00 | 0.00 | 84 | 1017.5 |
| 20260508053518 | 58 | 94 | 0.9 | 1.7 | 0.00 | 0.00 | 0.00 | 85 | 1017.6 |
| 20260508053027 | 58 | 136 | 0.9 | 2.6 | 0.00 | 0.00 | 0.00 | 85 | 1017.6 |
| 20260508053018 | 58 | 136 | 0.0 | 2.6 | 0.00 | 0.00 | 0.00 | 85 | 1017.5 |
| 20260508052518 | 57 | 107 | 0.0 | 2.6 | 0.00 | 0.00 | 0.00 | 87 | 1017.6 |
| 20260508052018 | 57 | 56 | 0.9 | 1.7 | 0.00 | 0.00 | 0.00 | 88 | 1017.6 |
| 20260508051527 | 57 | 57 | 0.9 | 3.5 | 0.00 | 0.00 | 0.00 | 88 | 1017.6 |
| 20260508051518 | 57 | 57 | 0.0 | 3.5 | 0.00 | 0.00 | 0.00 | 88 | 1017.5 |
| 20260508051019 | 57 | 53 | 1.7 | 3.5 | 0.00 | 0.00 | 0.00 | 88 | 1017.6 |
| 20260508050518 | 58 | 108 | 0.0 | 0.9 | 0.00 | 0.00 | 0.00 | 90 | 1017.6 |
| 20260508050038 | 58 | 224 | 0.0 | 0.9 | 0.00 | 0.00 | 0.00 | 90 | 1017.6 |
| 20260508050018 | 58 | 224 | 0.0 | 0.9 | 0.00 | 0.00 | 0.00 | 90 | 1017.5 |
| 20260508045518 | 58 | 179 | 0.0 | 0.9 | 0.00 | 0.00 | 0.00 | 91 | 1017.6 |
| 20260508045018 | 57 | 142 | 0.0 | 0.0 | 0.00 | 0.00 | 0.00 | 91 | 1017.4 |
| 20260508044527 | 57 | 134 | 0.0 | 1.7 | 0.00 | 0.00 | 0.00 | 91 | 1017.4 |
| 20260508044518 | 57 | 134 | 0.0 | 1.7 | 0.00 | 0.00 | 0.00 | 91 | 1017.2 |
| 20260508044018 | 57 | 162 | 0.0 | 1.7 | 0.00 | 0.00 | 0.00 | 91 | 1017.4 |
| 20260508043518 | 57 | 148 | 0.9 | 1.7 | 0.00 | 0.00 | 0.00 | 91 | 1017.4 |
| 20260508043039 | 56 | 191 | 0.9 | 2.6 | 0.00 | 0.00 | 0.00 | 91 | 1017.3 |
| 20260508043018 | 56 | 191 | 0.0 | 2.6 | 0.00 | 0.00 | 0.00 | 91 | 1017.2 |
| 20260508042520 | 56 | 199 | 0.9 | 2.6 | 0.00 | 0.00 | 0.00 | 91 | 1017.2 |
| 20260508042018 | 56 | 144 | 0.0 | 1.7 | 0.00 | 0.00 | 0.00 | 91 | 1017.1 |
| 20260508041527 | 56 | 153 | 0.0 | 0.0 | 0.00 | 0.00 | 0.00 | 91 | 1017.2 |
| 20260508041518 | 56 | 153 | 0.0 | 0.0 | 0.00 | 0.00 | 0.00 | 91 | 1017.1 |
| 20260508041018 | 55 | 153 | 0.0 | 0.0 | 0.00 | 0.00 | 0.00 | 91 | 1017.2 |
| 20260508040518 | 55 | 153 | 0.0 | 0.0 | 0.00 | 0.00 | 0.00 | 91 | 1017.2 |
| 20260508040028 | 55 | 165 | 0.0 | 0.0 | 0.00 | 0.00 | 0.00 | 91 | 1017.1 |
| 20260508040018 | 55 | 165 | 0.0 | 0.0 | 0.00 | 0.00 | 0.00 | 91 | 1017.0 |
| 20260508035519 | 55 | 174 | 0.0 | 0.0 | 0.00 | 0.00 | 0.00 | 91 | 1017.1 |
| 20260508035018 | 55 | 174 | 0.0 | 0.0 | 0.00 | 0.00 | 0.00 | 91 | 1017.1 |
| 20260508034528 | 55 | 174 | 0.0 | 0.0 | 0.00 | 0.00 | 0.00 | 91 | 1017.3 |
| 20260508034519 | 55 | 174 | 0.0 | 0.0 | 0.00 | 0.00 | 0.00 | 91 | 1017.2 |
| 20260508034020 | 55 | 174 | 0.0 | 0.0 | 0.00 | 0.00 | 0.00 | 91 | 1017.2 |
| 20260508033518 | 55 | 175 | 0.0 | 0.0 | 0.00 | 0.00 | 0.00 | 91 | 1017.3 |
| 20260508033028 | 55 | 158 | 0.0 | 0.9 | 0.00 | 0.00 | 0.00 | 91 | 1017.3 |
| 20260508033019 | 55 | 158 | 0.0 | 0.9 | 0.00 | 0.00 | 0.00 | 91 | 1017.1 |
| 20260508032518 | 55 | 158 | 0.0 | 0.0 | 0.00 | 0.00 | 0.00 | 91 | 1017.3 |
| 20260508032019 | 54 | 160 | 0.0 | 0.9 | 0.00 | 0.00 | 0.00 | 91 | 1017.4 |
| 20260508031530 | 54 | 160 | 0.9 | 0.9 | 0.00 | 0.00 | 0.00 | 90 | 1017.3 |
| 20260508031519 | 54 | 160 | 0.0 | 0.9 | 0.00 | 0.00 | 0.00 | 90 | 1017.1 |
| 20260508030939 | 54 | 245 | 0.0 | 0.9 | 0.00 | 0.00 | 0.00 | 91 | 1017.1 |
| 20260508030440 | 54 | 217 | 0.0 | 0.9 | 0.00 | 0.00 | 0.00 | 91 | 1017.1 |
| 20260508030043 | 54 | 218 | 0.0 | 0.9 | 0.00 | 0.00 | 0.00 | 90 | 1017.0 |
| 20260508025949 | 54 | 217 | 0.0 | 0.9 | 0.00 | 0.00 | 0.00 | 90 | 1017.0 |
| 20260508025439 | 54 | 215 | 0.0 | 1.7 | 0.00 | 0.00 | 0.00 | 90 | 1017.0 |
| 20260508024941 | 54 | 204 | 0.0 | 1.7 | 0.00 | 0.00 | 0.00 | 90 | 1017.1 |
| 20260508024552 | 54 | 221 | 0.0 | 0.0 | 0.00 | 0.00 | 0.00 | 90 | 1017.0 |
| 20260508024450 | 54 | 221 | 0.0 | 0.0 | 0.00 | 0.00 | 0.00 | 90 | 1017.1 |
| 20260508023950 | 54 | 231 | 0.0 | 0.0 | 0.00 | 0.00 | 0.00 | 90 | 1017.0 |
| 20260508023439 | 55 | 224 | 0.0 | 1.7 | 0.00 | 0.00 | 0.00 | 90 | 1017.0 |
| 20260508023040 | 55 | 193 | 0.0 | 1.7 | 0.00 | 0.00 | 0.00 | 90 | 1016.8 |
| 20260508022949 | 55 | 214 | 0.0 | 1.7 | 0.00 | 0.00 | 0.00 | 90 | 1016.9 |
| 20260508022440 | 55 | 197 | 0.0 | 0.9 | 0.00 | 0.00 | 0.00 | 90 | 1016.9 |
| 20260508021940 | 55 | 165 | 0.0 | 0.9 | 0.00 | 0.00 | 0.00 | 90 | 1016.9 |
| 20260508021540 | 55 | 165 | 0.0 | 0.9 | 0.00 | 0.00 | 0.00 | 90 | 1016.6 |
| 20260508021450 | 55 | 123 | 0.0 | 0.9 | 0.00 | 0.00 | 0.00 | 90 | 1016.7 |
| 20260508020951 | 55 | 204 | 0.0 | 0.0 | 0.00 | 0.00 | 0.00 | 90 | 1016.7 |
| 20260508020440 | 55 | 203 | 0.0 | 0.9 | 0.00 | 0.00 | 0.00 | 90 | 1016.7 |
| 20260508020045 | 55 | 204 | 0.0 | 0.9 | 0.00 | 0.00 | 0.00 | 90 | 1016.7 |
| 20260508015949 | 55 | 192 | 0.0 | 0.9 | 0.00 | 0.00 | 0.00 | 90 | 1016.8 |
| 20260508015440 | 55 | 211 | 0.0 | 0.9 | 0.00 | 0.00 | 0.00 | 90 | 1016.7 |
| 20260508014941 | 55 | 212 | 0.0 | 2.6 | 0.00 | 0.00 | 0.00 | 90 | 1016.8 |
| 20260508014540 | 55 | 210 | 0.0 | 2.6 | 0.00 | 0.00 | 0.00 | 90 | 1016.8 |
| 20260508014449 | 55 | 210 | 0.0 | 2.6 | 0.00 | 0.00 | 0.00 | 90 | 1016.9 |
| 20260508013941 | 55 | 205 | 0.0 | 0.0 | 0.00 | 0.00 | 0.00 | 90 | 1016.9 |
| 20260508013440 | 55 | 205 | 0.0 | 0.0 | 0.00 | 0.00 | 0.00 | 90 | 1017.0 |
| 20260508013040 | 55 | 235 | 0.0 | 0.0 | 0.00 | 0.00 | 0.00 | 90 | 1017.0 |
| 20260508012949 | 55 | 256 | 0.0 | 0.0 | 0.00 | 0.00 | 0.00 | 90 | 1017.0 |
| 20260508012440 | 55 | 256 | 0.0 | 0.0 | 0.00 | 0.00 | 0.00 | 90 | 1017.1 |
| 20260508011940 | 55 | 258 | 0.0 | 0.0 | 0.00 | 0.00 | 0.00 | 90 | 1017.1 |
| 20260508011550 | 55 | 257 | 0.0 | 0.0 | 0.00 | 0.00 | 0.00 | 90 | 1017.1 |
| 20260508011449 | 55 | 257 | 0.0 | 0.0 | 0.00 | 0.00 | 0.00 | 90 | 1017.2 |
| 20260508010952 | 55 | 259 | 0.0 | 0.0 | 0.00 | 0.00 | 0.00 | 90 | 1017.3 |
| 20260508010440 | 55 | 258 | 0.0 | 0.0 | 0.00 | 0.00 | 0.00 | 89 | 1017.2 |
| 20260508010050 | 55 | 224 | 0.0 | 1.7 | 0.00 | 0.00 | 0.00 | 89 | 1017.3 |
| 20260508005949 | 55 | 224 | 0.0 | 1.7 | 0.00 | 0.00 | 0.00 | 89 | 1017.4 |
| 20260508005440 | 55 | 233 | 0.0 | 1.7 | 0.00 | 0.00 | 0.00 | 90 | 1017.4 |
| 20260508004951 | 55 | 139 | 0.0 | 0.9 | 0.00 | 0.00 | 0.00 | 89 | 1017.4 |
| 20260508004554 | 55 | 154 | 0.0 | 0.9 | 0.00 | 0.00 | 0.00 | 90 | 1017.3 |
| 20260508004449 | 55 | 179 | 0.0 | 0.9 | 0.00 | 0.00 | 0.00 | 90 | 1017.4 |
| 20260508003940 | 55 | 197 | 0.0 | 1.7 | 0.00 | 0.00 | 0.00 | 89 | 1017.4 |
| 20260508003440 | 55 | 203 | 0.0 | 1.7 | 0.00 | 0.00 | 0.00 | 89 | 1017.5 |
| 20260508003043 | 55 | 160 | 0.0 | 0.9 | 0.00 | 0.00 | 0.00 | 89 | 1017.4 |
| 20260508002949 | 55 | 160 | 0.0 | 0.9 | 0.00 | 0.00 | 0.00 | 89 | 1017.5 |
| 20260508002442 | 55 | 228 | 0.0 | 0.9 | 0.00 | 0.00 | 0.00 | 89 | 1017.4 |
| 20260508001940 | 56 | 141 | 0.0 | 0.9 | 0.00 | 0.00 | 0.00 | 89 | 1017.4 |
| 20260508001543 | 56 | 65 | 0.0 | 2.6 | 0.00 | 0.00 | 0.00 | 89 | 1017.4 |
| 20260508001449 | 56 | 65 | 0.0 | 2.6 | 0.00 | 0.00 | 0.00 | 89 | 1017.5 |
| 20260508000940 | 56 | 158 | 0.9 | 2.6 | 0.00 | 0.00 | 0.00 | 89 | 1017.5 |
| 20260508000451 | 56 | 184 | 0.0 | 0.9 | 0.00 | 0.00 | 0.00 | 89 | 1017.5 |
| 20260508000040 | 56 | 191 | 0.0 | 0.9 | 0.00 | 0.00 | 0.00 | 89 | 1017.5 |
| 20260507235951 | 56 | 191 | 0.0 | 0.9 | 0.00 | 0.00 | 0.00 | 89 | 1017.6 |
| 20260507235440 | 56 | 220 | 0.0 | 0.9 | 0.00 | 0.00 | 0.00 | 89 | 1017.7 |
| 20260507234941 | 56 | 191 | 0.0 | 0.9 | 0.00 | 0.00 | 0.00 | 89 | 1017.8 |
| 20260507234541 | 56 | 227 | 0.0 | 0.9 | 0.00 | 0.00 | 0.00 | 89 | 1017.7 |
| 20260507234451 | 56 | 215 | 0.0 | 0.9 | 0.00 | 0.00 | 0.00 | 89 | 1017.7 |
| 20260507233952 | 56 | 169 | 0.0 | 0.9 | 0.00 | 0.00 | 0.00 | 89 | 1017.9 |
| 20260507233440 | 56 | 191 | 0.0 | 0.9 | 0.00 | 0.00 | 0.00 | 89 | 1017.9 |
| 20260507233041 | 56 | 220 | 0.0 | 1.7 | 0.00 | 0.00 | 0.00 | 89 | 1017.8 |
| 20260507232950 | 56 | 220 | 0.0 | 1.7 | 0.00 | 0.00 | 0.00 | 89 | 1017.9 |
| 20260507232442 | 56 | 233 | 0.0 | 1.7 | 0.00 | 0.00 | 0.00 | 89 | 1018.0 |
| 20260507231953 | 56 | 196 | 0.0 | 1.7 | 0.00 | 0.00 | 0.00 | 89 | 1018.0 |
| 20260507231545 | 56 | 219 | 0.0 | 1.7 | 0.00 | 0.00 | 0.00 | 89 | 1017.9 |
| 20260507231450 | 56 | 155 | 0.0 | 1.7 | 0.00 | 0.00 | 0.00 | 89 | 1018.0 |
| 20260507230941 | 56 | 224 | 0.0 | 0.9 | 0.00 | 0.00 | 0.00 | 88 | 1018.0 |
| 20260507230441 | 56 | 137 | 0.0 | 0.9 | 0.00 | 0.00 | 0.00 | 88 | 1018.1 |
| 20260507230040 | 56 | 141 | 0.0 | 0.9 | 0.00 | 0.00 | 0.00 | 88 | 1018.1 |
| 20260507225950 | 56 | 230 | 0.0 | 0.9 | 0.00 | 0.00 | 0.00 | 88 | 1018.2 |
| 20260507225441 | 57 | 240 | 0.0 | 1.7 | 0.00 | 0.00 | 0.00 | 88 | 1018.2 |
| 20260507224941 | 57 | 240 | 0.0 | 1.7 | 0.00 | 0.00 | 0.00 | 88 | 1018.2 |
| 20260507224553 | 57 | 254 | 0.9 | 1.7 | 0.00 | 0.00 | 0.00 | 88 | 1018.2 |
| 20260507224450 | 57 | 269 | 0.9 | 1.7 | 0.00 | 0.00 | 0.00 | 88 | 1018.3 |
| 20260507223941 | 57 | 257 | 0.0 | 1.7 | 0.00 | 0.00 | 0.00 | 87 | 1018.4 |
| 20260507223441 | 57 | 236 | 0.0 | 0.9 | 0.00 | 0.00 | 0.00 | 88 | 1018.5 |
| 20260507223041 | 57 | 223 | 0.0 | 0.0 | 0.00 | 0.00 | 0.00 | 88 | 1018.4 |
| 20260507222950 | 57 | 223 | 0.0 | 0.0 | 0.00 | 0.00 | 0.00 | 88 | 1018.5 |
| 20260507222441 | 57 | 221 | 0.0 | 0.0 | 0.00 | 0.00 | 0.00 | 87 | 1018.6 |
| 20260507221941 | 57 | 215 | 0.0 | 0.0 | 0.00 | 0.00 | 0.00 | 87 | 1018.4 |
| 20260507221541 | 58 | 215 | 0.0 | 0.9 | 0.00 | 0.00 | 0.00 | 87 | 1018.4 |
| 20260507221451 | 58 | 216 | 0.0 | 0.9 | 0.00 | 0.00 | 0.00 | 87 | 1018.5 |
| 20260507220941 | 58 | 201 | 0.0 | 1.7 | 0.00 | 0.00 | 0.00 | 87 | 1018.5 |
| 20260507220452 | 58 | 222 | 0.0 | 1.7 | 0.00 | 0.00 | 0.00 | 87 | 1018.4 |
| 20260507220041 | 58 | 153 | 0.0 | 1.7 | 0.00 | 0.00 | 0.00 | 87 | 1018.4 |
| 20260507215950 | 58 | 153 | 0.9 | 1.7 | 0.00 | 0.00 | 0.00 | 87 | 1018.4 |
| 20260507215441 | 58 | 153 | 0.0 | 0.9 | 0.00 | 0.00 | 0.00 | 87 | 1018.5 |
| 20260507214952 | 58 | 161 | 0.0 | 1.7 | 0.00 | 0.00 | 0.00 | 87 | 1018.5 |
| 20260507214541 | 58 | 161 | 0.0 | 2.6 | 0.00 | 0.00 | 0.00 | 86 | 1018.3 |
| 20260507214451 | 58 | 172 | 0.9 | 2.6 | 0.00 | 0.00 | 0.00 | 86 | 1018.5 |
| 20260507213952 | 58 | 178 | 0.9 | 2.6 | 0.00 | 0.00 | 0.00 | 87 | 1018.4 |
| 20260507213452 | 58 | 216 | 0.0 | 1.7 | 0.00 | 0.00 | 0.00 | 87 | 1018.4 |
| 20260507213050 | 58 | 208 | 0.0 | 1.7 | 0.00 | 0.00 | 0.00 | 87 | 1018.4 |
| 20260507212950 | 58 | 228 | 0.9 | 1.7 | 0.00 | 0.00 | 0.00 | 87 | 1018.5 |
| 20260507212441 | 58 | 227 | 0.0 | 1.7 | 0.00 | 0.00 | 0.00 | 87 | 1018.4 |
| 20260507211941 | 57 | 149 | 0.0 | 2.6 | 0.00 | 0.00 | 0.00 | 87 | 1018.5 |
| 20260507211543 | 57 | 200 | 0.0 | 2.6 | 0.00 | 0.00 | 0.00 | 88 | 1018.4 |
| 20260507211451 | 57 | 199 | 0.9 | 2.6 | 0.00 | 0.00 | 0.00 | 88 | 1018.5 |
| 20260507210942 | 57 | 207 | 0.9 | 1.7 | 0.00 | 0.00 | 0.00 | 87 | 1018.6 |
| 20260507210441 | 56 | 155 | 0.0 | 2.6 | 0.00 | 0.00 | 0.00 | 87 | 1018.4 |
| 20260507210048 | 56 | 183 | 0.0 | 2.6 | 0.00 | 0.00 | 0.00 | 87 | 1018.3 |
| 20260507205952 | 56 | 169 | 0.9 | 2.6 | 0.00 | 0.00 | 0.00 | 87 | 1018.4 |
| 20260507205441 | 56 | 170 | 0.9 | 1.7 | 0.00 | 0.00 | 0.00 | 86 | 1018.3 |
| 20260507204953 | 57 | 214 | 0.9 | 1.7 | 0.00 | 0.00 | 0.00 | 86 | 1018.3 |
| 20260507204555 | 57 | 167 | 0.0 | 1.7 | 0.00 | 0.00 | 0.00 | 86 | 1018.2 |
| 20260507204450 | 57 | 211 | 0.0 | 1.7 | 0.00 | 0.00 | 0.00 | 85 | 1018.3 |
| 20260507203942 | 57 | 189 | 0.9 | 2.6 | 0.00 | 0.00 | 0.00 | 85 | 1018.3 |
| 20260507203442 | 57 | 214 | 0.9 | 2.6 | 0.00 | 0.00 | 0.00 | 85 | 1018.2 |
| 20260507203042 | 57 | 169 | 0.0 | 1.7 | 0.00 | 0.00 | 0.00 | 85 | 1018.2 |
| 20260507202951 | 57 | 169 | 0.0 | 0.9 | 0.00 | 0.00 | 0.00 | 85 | 1018.2 |
| 20260507202441 | 57 | 188 | 0.0 | 1.7 | 0.00 | 0.00 | 0.00 | 85 | 1018.2 |
| 20260507201942 | 57 | 221 | 0.0 | 1.7 | 0.00 | 0.00 | 0.00 | 85 | 1018.2 |
| 20260507201543 | 57 | 233 | 0.0 | 1.7 | 0.00 | 0.00 | 0.00 | 84 | 1018.1 |
| 20260507201451 | 57 | 141 | 0.9 | 1.7 | 0.00 | 0.00 | 0.00 | 84 | 1018.1 |
| 20260507200941 | 57 | 172 | 0.0 | 1.7 | 0.00 | 0.00 | 0.00 | 84 | 1018.2 |
| 20260507200453 | 57 | 187 | 0.9 | 3.5 | 0.00 | 0.00 | 0.00 | 84 | 1018.3 |
| 20260507200042 | 57 | 230 | 0.0 | 3.5 | 0.00 | 0.00 | 0.00 | 84 | 1018.2 |
| 20260507195951 | 57 | 221 | 0.9 | 3.5 | 0.00 | 0.00 | 0.00 | 84 | 1018.1 |
| 20260507195443 | 57 | 172 | 0.9 | 2.6 | 0.00 | 0.00 | 0.00 | 84 | 1018.2 |
| 20260507194942 | 57 | 181 | 0.9 | 2.6 | 0.00 | 0.00 | 0.00 | 84 | 1018.2 |
| 20260507194542 | 57 | 197 | 0.9 | 3.5 | 0.00 | 0.00 | 0.00 | 84 | 1018.2 |
| 20260507194452 | 57 | 157 | 1.7 | 3.5 | 0.00 | 0.00 | 0.00 | 84 | 1018.3 |
| 20260507193943 | 57 | 222 | 0.9 | 3.5 | 0.00 | 0.00 | 0.00 | 84 | 1018.2 |
| 20260507193442 | 57 | 194 | 0.9 | 2.6 | 0.00 | 0.00 | 0.00 | 83 | 1018.2 |
| 20260507193042 | 57 | 123 | 0.0 | 2.6 | 0.00 | 0.00 | 0.00 | 83 | 1018.1 |
| 20260507192951 | 58 | 166 | 0.0 | 2.6 | 0.00 | 0.00 | 0.00 | 83 | 1018.3 |
| 20260507192443 | 58 | 176 | 0.0 | 2.6 | 0.00 | 0.00 | 0.00 | 82 | 1018.1 |
| 20260507191943 | 58 | 186 | 0.0 | 1.7 | 0.00 | 0.00 | 0.00 | 81 | 1018.2 |
| 20260507191542 | 58 | 160 | 0.0 | 1.7 | 0.00 | 0.00 | 0.00 | 81 | 1018.1 |
| 20260507191454 | 58 | 162 | 0.9 | 0.9 | 0.00 | 0.00 | 0.00 | 82 | 1018.2 |
| 20260507190943 | 59 | 231 | 0.0 | 1.7 | 0.00 | 0.00 | 0.00 | 82 | 1018.2 |
| 20260507190443 | 59 | 121 | 0.0 | 2.6 | 0.00 | 0.00 | 0.00 | 81 | 1018.2 |
| 20260507190043 | 59 | 146 | 0.0 | 2.6 | 0.00 | 0.00 | 0.00 | 81 | 1018.2 |
| 20260507190005 | 59 | 141 | 0.0 | 2.6 | 0.00 | 0.00 | 0.00 | 81 | 1018.2 |
| 20260507185442 | 59 | 233 | 0.0 | 0.9 | 0.00 | 0.00 | 0.00 | 80 | 1018.2 |
| 20260507184943 | 60 | 232 | 0.0 | 0.9 | 0.00 | 0.00 | 0.00 | 80 | 1018.3 |
| 20260507184542 | 60 | 137 | 0.0 | 1.7 | 0.00 | 0.00 | 0.00 | 80 | 1018.1 |
| 20260507184504 | 60 | 156 | 0.0 | 1.7 | 0.00 | 0.00 | 0.00 | 80 | 1018.1 |
| 20260507183942 | 60 | 192 | 0.0 | 2.6 | 0.00 | 0.00 | 0.00 | 80 | 1018.0 |
| 20260507183444 | 60 | 214 | 0.9 | 2.6 | 0.00 | 0.00 | 0.00 | 79 | 1018.1 |
| 20260507183047 | 61 | 198 | 0.0 | 2.6 | 0.00 | 0.00 | 0.00 | 79 | 1017.9 |
| 20260507182952 | 61 | 240 | 0.9 | 1.7 | 0.00 | 0.00 | 0.00 | 78 | 1018.2 |
| 20260507182443 | 61 | 148 | 0.9 | 1.7 | 0.00 | 0.00 | 0.00 | 78 | 1018.1 |
| 20260507181943 | 62 | 230 | 0.0 | 0.9 | 0.00 | 0.00 | 0.00 | 78 | 1018.1 |
| 20260507181542 | 62 | 159 | 0.0 | 0.9 | 0.00 | 0.00 | 0.00 | 77 | 1018.0 |
| 20260507181452 | 62 | 158 | 0.0 | 0.9 | 0.00 | 0.00 | 0.00 | 77 | 1018.0 |
| 20260507180944 | 62 | 164 | 0.0 | 1.7 | 0.00 | 0.00 | 0.00 | 76 | 1018.0 |
| 20260507180455 | 63 | 255 | 0.9 | 1.7 | 0.00 | 0.00 | 0.00 | 75 | 1017.9 |
| 20260507180049 | 63 | 258 | 0.0 | 1.7 | 0.00 | 0.00 | 0.00 | 75 | 1017.7 |
| 20260507180004 | 63 | 258 | 0.9 | 1.7 | 0.00 | 0.00 | 0.00 | 75 | 1017.8 |
| 20260507175442 | 63 | 257 | 0.0 | 1.7 | 0.00 | 0.00 | 0.00 | 74 | 1017.7 |
| 20260507174955 | 63 | 246 | 0.0 | 1.7 | 0.00 | 0.00 | 0.00 | 74 | 1017.8 |
| 20260507174543 | 64 | 246 | 0.0 | 1.7 | 0.00 | 0.00 | 0.00 | 74 | 1017.6 |
| 20260507174453 | 64 | 245 | 0.0 | 1.7 | 0.00 | 0.00 | 0.00 | 75 | 1017.7 |
| 20260507173944 | 64 | 158 | 0.0 | 0.0 | 0.00 | 0.00 | 0.00 | 74 | 1017.6 |
| 20260507173444 | 64 | 142 | 0.0 | 0.0 | 0.00 | 0.00 | 0.00 | 73 | 1017.6 |
| 20260507173046 | 65 | 192 | 0.0 | 0.0 | 0.00 | 0.00 | 0.00 | 73 | 1017.4 |
| 20260507172951 | 65 | 192 | 0.0 | 0.0 | 0.00 | 0.00 | 0.00 | 73 | 1017.6 |
| 20260507172443 | 65 | 193 | 0.0 | 0.9 | 0.00 | 0.00 | 0.00 | 72 | 1017.7 |
| 20260507171942 | 65 | 126 | 0.0 | 2.6 | 0.00 | 0.00 | 0.00 | 70 | 1017.5 |
| 20260507171544 | 65 | 55 | 0.0 | 2.6 | 0.00 | 0.00 | 0.00 | 71 | 1017.2 |
| 20260507171451 | 65 | 56 | 0.0 | 2.6 | 0.00 | 0.00 | 0.00 | 71 | 1017.4 |
| 20260507170955 | 65 | 53 | 0.0 | 1.7 | 0.00 | 0.00 | 0.00 | 73 | 1017.2 |
| 20260507170444 | 65 | 117 | 0.0 | 0.0 | 0.00 | 0.00 | 0.00 | 73 | 1017.6 |
| 20260507170043 | 66 | 191 | 0.0 | 0.0 | 0.00 | 0.00 | 0.00 | 72 | 1017.8 |
| 20260507165953 | 66 | 205 | 0.0 | 0.0 | 0.00 | 0.00 | 0.00 | 73 | 1017.9 |
| 20260507165444 | 66 | 205 | 0.0 | 0.0 | 0.00 | 0.00 | 0.00 | 74 | 1018.0 |
| 20260507164944 | 66 | 205 | 0.0 | 0.0 | 0.00 | 0.00 | 0.00 | 74 | 1018.1 |
| 20260507164543 | 67 | 205 | 0.0 | 0.0 | 0.00 | 0.00 | 0.00 | 72 | 1018.0 |
| 20260507164453 | 67 | 205 | 0.0 | 0.0 | 0.00 | 0.00 | 0.00 | 73 | 1018.1 |
| 20260507163954 | 67 | 206 | 0.0 | 0.0 | 0.00 | 0.00 | 0.00 | 71 | 1018.1 |
| 20260507163443 | 67 | 206 | 0.0 | 0.0 | 0.00 | 0.00 | 0.00 | 70 | 1018.1 |
| 20260507163044 | 67 | 150 | 0.0 | 0.0 | 0.00 | 0.00 | 0.00 | 69 | 1017.9 |
| 20260507162952 | 67 | 150 | 0.0 | 0.0 | 0.00 | 0.00 | 0.00 | 69 | 1018.0 |
| 20260507162443 | 67 | 150 | 0.0 | 0.0 | 0.00 | 0.00 | 0.00 | 69 | 1017.9 |
| 20260507161943 | 67 | 150 | 0.0 | 0.0 | 0.00 | 0.00 | 0.00 | 68 | 1017.9 |
| 20260507161543 | 68 | 193 | 0.0 | 0.0 | 0.00 | 0.00 | 0.00 | 68 | 1017.8 |
| 20260507161503 | 68 | 193 | 0.0 | 0.0 | 0.00 | 0.00 | 0.00 | 68 | 1018.0 |
| 20260507160943 | 67 | 193 | 0.0 | 0.0 | 0.00 | 0.00 | 0.00 | 68 | 1018.0 |
| 20260507160455 | 67 | 193 | 0.0 | 0.0 | 0.00 | 0.00 | 0.00 | 67 | 1017.9 |
| 20260507160044 | 67 | 193 | 0.0 | 0.0 | 0.00 | 0.00 | 0.00 | 68 | 1017.9 |
| 20260507160003 | 67 | 194 | 0.0 | 0.0 | 0.00 | 0.00 | 0.00 | 67 | 1018.0 |
| 20260507155443 | 67 | 193 | 0.0 | 0.0 | 0.00 | 0.00 | 0.00 | 69 | 1018.2 |
| 20260507154943 | 67 | 179 | 0.0 | 0.0 | 0.00 | 0.00 | 0.00 | 70 | 1018.1 |
| 20260507154543 | 67 | 159 | 0.0 | 0.0 | 0.00 | 0.00 | 0.00 | 69 | 1017.8 |
| 20260507154453 | 67 | 163 | 0.0 | 0.0 | 0.00 | 0.00 | 0.00 | 70 | 1018.0 |
| 20260507153954 | 67 | 221 | 0.0 | 0.0 | 0.00 | 0.00 | 0.00 | 68 | 1017.9 |
| 20260507153443 | 67 | 235 | 0.0 | 0.9 | 0.00 | 0.00 | 0.00 | 66 | 1018.2 |
| 20260507153050 | 67 | 238 | 0.0 | 0.9 | 0.00 | 0.00 | 0.00 | 66 | 1018.2 |
| 20260507152952 | 67 | 237 | 0.0 | 0.9 | 0.00 | 0.00 | 0.00 | 66 | 1018.3 |
| 20260507152443 | 67 | 240 | 0.0 | 1.7 | 0.00 | 0.00 | 0.00 | 67 | 1018.3 |
| 20260507151943 | 67 | 252 | 0.9 | 1.7 | 0.00 | 0.00 | 0.00 | 65 | 1018.2 |
| 20260507151543 | 67 | 257 | 0.0 | 2.6 | 0.00 | 0.00 | 0.00 | 65 | 1018.1 |
| 20260507151452 | 67 | 257 | 0.9 | 2.6 | 0.00 | 0.00 | 0.00 | 65 | 1018.3 |
| 20260507150943 | 67 | 266 | 0.9 | 2.6 | 0.00 | 0.00 | 0.00 | 66 | 1018.3 |
| 20260507150445 | 67 | 272 | 0.9 | 2.6 | 0.00 | 0.00 | 0.00 | 66 | 1018.2 |
| 20260507150044 | 67 | 266 | 0.0 | 2.6 | 0.00 | 0.00 | 0.00 | 67 | 1018.1 |
| 20260507145953 | 67 | 300 | 0.0 | 2.6 | 0.00 | 0.00 | 0.00 | 67 | 1018.1 |
| 20260507145443 | 67 | 259 | 0.9 | 4.3 | 0.00 | 0.00 | 0.00 | 67 | 1018.2 |
| 20260507144955 | 67 | 314 | 0.9 | 4.3 | 0.00 | 0.00 | 0.00 | 68 | 1018.2 |
| 20260507144548 | 68 | 292 | 0.9 | 4.3 | 0.00 | 0.00 | 0.00 | 67 | 1018.1 |
| 20260507144453 | 68 | 288 | 0.9 | 4.3 | 0.00 | 0.00 | 0.00 | 68 | 1018.2 |
| 20260507143944 | 68 | 278 | 1.7 | 5.2 | 0.00 | 0.00 | 0.00 | 67 | 1018.3 |
| 20260507143445 | 68 | 317 | 2.6 | 5.2 | 0.00 | 0.00 | 0.00 | 66 | 1018.1 |
| 20260507143043 | 68 | 291 | 1.7 | 7.0 | 0.00 | 0.00 | 0.00 | 66 | 1018.0 |
| 20260507142954 | 68 | 287 | 2.6 | 7.0 | 0.00 | 0.00 | 0.00 | 66 | 1018.1 |
| 20260507142444 | 68 | 292 | 3.5 | 7.0 | 0.00 | 0.00 | 0.00 | 64 | 1018.2 |
| 20260507141944 | 69 | 330 | 2.6 | 6.1 | 0.00 | 0.00 | 0.00 | 66 | 1018.2 |
| 20260507141547 | 69 | 307 | 1.7 | 5.2 | 0.00 | 0.00 | 0.00 | 67 | 1018.0 |
| 20260507141454 | 69 | 290 | 2.6 | 5.2 | 0.00 | 0.00 | 0.00 | 67 | 1018.0 |
| 20260507140943 | 70 | 288 | 2.6 | 6.1 | 0.00 | 0.00 | 0.00 | 67 | 1018.0 |
| 20260507140455 | 70 | 285 | 2.6 | 5.2 | 0.00 | 0.00 | 0.00 | 67 | 1018.0 |
| 20260507140104 | 71 | 285 | 0.9 | 7.0 | 0.00 | 0.00 | 0.00 | 65 | 1017.8 |
| 20260507135953 | 71 | 307 | 1.7 | 7.0 | 0.00 | 0.00 | 0.00 | 65 | 1018.0 |
| 20260507135444 | 71 | 338 | 2.6 | 7.0 | 0.00 | 0.00 | 0.00 | 63 | 1017.8 |
| 20260507134944 | 72 | 314 | 0.9 | 3.5 | 0.00 | 0.00 | 0.00 | 63 | 1018.0 |
| 20260507134544 | 71 | 34 | 0.9 | 3.5 | 0.00 | 0.00 | 0.00 | 64 | 1017.7 |
| 20260507134453 | 71 | 340 | 1.7 | 3.5 | 0.00 | 0.00 | 0.00 | 64 | 1017.8 |
| 20260507133944 | 71 | 341 | 0.9 | 2.6 | 0.00 | 0.00 | 0.00 | 63 | 1017.8 |
| 20260507133444 | 71 | 308 | 0.9 | 2.6 | 0.00 | 0.00 | 0.00 | 62 | 1017.8 |
| 20260507133047 | 70 | 25 | 0.0 | 1.7 | 0.00 | 0.00 | 0.00 | 64 | 1017.7 |
| 20260507132953 | 70 | 17 | 0.0 | 1.7 | 0.00 | 0.00 | 0.00 | 64 | 1017.9 |
| 20260507132444 | 69 | 62 | 0.0 | 1.7 | 0.00 | 0.00 | 0.00 | 65 | 1017.7 |
| 20260507131944 | 69 | 65 | 0.0 | 1.7 | 0.00 | 0.00 | 0.00 | 65 | 1017.9 |
| 20260507131547 | 69 | 66 | 0.0 | 1.7 | 0.00 | 0.00 | 0.00 | 65 | 1017.9 |
| 20260507131504 | 69 | 48 | 0.0 | 1.7 | 0.00 | 0.00 | 0.00 | 65 | 1018.0 |
| 20260507130944 | 69 | 103 | 0.0 | 0.9 | 0.00 | 0.00 | 0.00 | 66 | 1018.2 |
| 20260507130455 | 69 | 136 | 0.0 | 1.7 | 0.00 | 0.00 | 0.00 | 66 | 1018.3 |
| 20260507130051 | 69 | 317 | 0.0 | 1.7 | 0.00 | 0.00 | 0.00 | 67 | 1018.2 |
| 20260507125953 | 68 | 11 | 0.9 | 1.7 | 0.00 | 0.00 | 0.00 | 67 | 1018.3 |
| 20260507125444 | 68 | 6 | 0.9 | 4.3 | 0.00 | 0.00 | 0.00 | 68 | 1018.2 |
| 20260507124944 | 68 | 50 | 0.9 | 4.3 | 0.00 | 0.00 | 0.00 | 69 | 1018.0 |
| 20260507124552 | 68 | 122 | 0.9 | 3.5 | 0.00 | 0.00 | 0.00 | 67 | 1017.7 |
| 20260507124453 | 68 | 62 | 0.9 | 3.5 | 0.00 | 0.00 | 0.00 | 67 | 1017.9 |
| 20260507123944 | 68 | 10 | 1.7 | 3.5 | 0.00 | 0.00 | 0.00 | 67 | 1018.2 |
| 20260507123444 | 68 | 326 | 1.7 | 3.5 | 0.00 | 0.00 | 0.00 | 66 | 1018.6 |
| 20260507123055 | 68 | 359 | 0.9 | 3.5 | 0.00 | 0.00 | 0.00 | 67 | 1018.7 |
| 20260507122953 | 68 | 350 | 1.7 | 3.5 | 0.00 | 0.00 | 0.00 | 67 | 1018.7 |
| 20260507122444 | 68 | 46 | 0.9 | 3.5 | 0.00 | 0.00 | 0.00 | 68 | 1018.9 |
| 20260507121944 | 68 | 340 | 0.9 | 2.6 | 0.00 | 0.00 | 0.00 | 68 | 1019.1 |
| 20260507121548 | 67 | 286 | 0.0 | 1.7 | 0.00 | 0.00 | 0.00 | 71 | 1019.2 |
| 20260507121455 | 67 | 332 | 0.0 | 0.9 | 0.00 | 0.00 | 0.00 | 70 | 1019.3 |
| 20260507120944 | 67 | 11 | 0.0 | 0.0 | 0.00 | 0.00 | 0.00 | 73 | 1019.5 |
| 20260507120444 | 66 | 11 | 0.0 | 0.9 | 0.00 | 0.00 | 0.00 | 71 | 1019.5 |
| 20260507120054 | 66 | 42 | 0.0 | 1.7 | 0.00 | 0.00 | 0.00 | 73 | 1019.4 |
| 20260507115953 | 66 | 42 | 0.0 | 1.7 | 0.00 | 0.00 | 0.00 | 73 | 1019.6 |
| 20260507115444 | 65 | 285 | 0.9 | 1.7 | 0.00 | 0.00 | 0.00 | 73 | 1019.7 |
| 20260507114945 | 66 | 330 | 0.0 | 1.7 | 0.00 | 0.00 | 0.00 | 76 | 1019.7 |
| 20260507114547 | 65 | 322 | 0.0 | 2.6 | 0.00 | 0.00 | 0.00 | 75 | 1019.5 |
| 20260507114454 | 65 | 359 | 0.9 | 2.6 | 0.00 | 0.00 | 0.00 | 75 | 1019.7 |
| 20260507113944 | 66 | 339 | 0.9 | 2.6 | 0.00 | 0.00 | 0.00 | 76 | 1019.7 |
| 20260507113444 | 66 | 34 | 0.9 | 2.6 | 0.00 | 0.00 | 0.00 | 75 | 1019.9 |
| 20260507113044 | 66 | 340 | 0.0 | 2.6 | 0.00 | 0.00 | 0.00 | 75 | 1019.8 |
| 20260507112954 | 66 | 311 | 0.0 | 2.6 | 0.00 | 0.00 | 0.00 | 75 | 1019.9 |
| 20260507112445 | 66 | 25 | 0.0 | 1.7 | 0.00 | 0.00 | 0.00 | 74 | 1020.0 |
| 20260507111955 | 66 | 307 | 0.9 | 2.6 | 0.00 | 0.00 | 0.00 | 72 | 1020.0 |
| 20260507111547 | 66 | 313 | 0.9 | 2.6 | 0.00 | 0.00 | 0.00 | 71 | 1020.0 |
| 20260507111453 | 66 | 283 | 0.9 | 2.6 | 0.00 | 0.00 | 0.00 | 71 | 1020.1 |
| 20260507110944 | 66 | 310 | 0.9 | 2.6 | 0.00 | 0.00 | 0.00 | 71 | 1020.1 |
| 20260507110446 | 66 | 319 | 0.9 | 2.6 | 0.00 | 0.00 | 0.00 | 70 | 1020.1 |
| 20260507110045 | 66 | 293 | 0.0 | 1.7 | 0.00 | 0.00 | 0.00 | 69 | 1019.9 |
| 20260507105954 | 66 | 303 | 0.9 | 2.6 | 0.00 | 0.00 | 0.00 | 69 | 1020.0 |
| 20260507105444 | 66 | 354 | 0.0 | 2.6 | 0.00 | 0.00 | 0.00 | 68 | 1020.0 |
| 20260507104944 | 67 | 330 | 0.9 | 2.6 | 0.00 | 0.00 | 0.00 | 67 | 1019.9 |
| 20260507104545 | 67 | 307 | 0.0 | 2.6 | 0.00 | 0.00 | 0.00 | 67 | 1019.8 |
| 20260507104454 | 67 | 307 | 0.0 | 4.3 | 0.00 | 0.00 | 0.00 | 66 | 1020.0 |
| 20260507103945 | 67 | 356 | 0.9 | 4.3 | 0.00 | 0.00 | 0.00 | 64 | 1020.0 |
| 20260507103445 | 67 | 285 | 1.7 | 3.5 | 0.00 | 0.00 | 0.00 | 62 | 1020.0 |
| 20260507103044 | 67 | 3 | 0.9 | 2.6 | 0.00 | 0.00 | 0.00 | 62 | 1019.7 |
| 20260507103005 | 67 | 288 | 0.9 | 3.5 | 0.00 | 0.00 | 0.00 | 61 | 1019.9 |
| 20260507102445 | 67 | 238 | 0.9 | 4.3 | 0.00 | 0.00 | 0.00 | 62 | 1020.0 |
| 20260507101956 | 67 | 227 | 1.7 | 4.3 | 0.00 | 0.00 | 0.00 | 62 | 1020.0 |
| 20260507101548 | 67 | 319 | 1.7 | 5.2 | 0.00 | 0.00 | 0.00 | 62 | 1019.8 |
| 20260507101454 | 67 | 302 | 1.7 | 5.2 | 0.00 | 0.00 | 0.00 | 62 | 1019.9 |
| 20260507100945 | 67 | 300 | 1.7 | 5.2 | 0.00 | 0.00 | 0.00 | 64 | 1020.0 |
| 20260507100446 | 68 | 338 | 2.6 | 4.3 | 0.00 | 0.00 | 0.00 | 63 | 1020.1 |
| 20260507100045 | 68 | 231 | 1.7 | 4.3 | 0.00 | 0.00 | 0.00 | 63 | 1019.8 |
| 20260507095955 | 68 | 295 | 2.6 | 4.3 | 0.00 | 0.00 | 0.00 | 63 | 1020.0 |
| 20260507095445 | 68 | 315 | 1.7 | 4.3 | 0.00 | 0.00 | 0.00 | 61 | 1019.9 |
| 20260507094946 | 68 | 307 | 2.6 | 4.3 | 0.00 | 0.00 | 0.00 | 60 | 1019.8 |
| 20260507094547 | 68 | 285 | 0.9 | 6.1 | 0.00 | 0.00 | 0.00 | 60 | 1019.5 |
| 20260507094455 | 68 | 251 | 0.9 | 6.1 | 0.00 | 0.00 | 0.00 | 60 | 1019.7 |
| 20260507093945 | 68 | 285 | 1.7 | 5.2 | 0.00 | 0.00 | 0.00 | 62 | 1019.6 |
| 20260507093446 | 68 | 299 | 2.6 | 5.2 | 0.00 | 0.00 | 0.00 | 60 | 1019.5 |
| 20260507093045 | 68 | 293 | 0.9 | 5.2 | 0.00 | 0.00 | 0.00 | 63 | 1019.2 |
| 20260507092955 | 68 | 304 | 0.9 | 5.2 | 0.00 | 0.00 | 0.00 | 62 | 1019.4 |
| 20260507092457 | 68 | 293 | 2.6 | 5.2 | 0.00 | 0.00 | 0.00 | 61 | 1019.3 |
| 20260507091946 | 68 | 279 | 3.5 | 5.2 | 0.00 | 0.00 | 0.00 | 61 | 1019.1 |
| 20260507091547 | 68 | 316 | 2.6 | 5.2 | 0.00 | 0.00 | 0.00 | 61 | 1018.9 |
| 20260507091454 | 68 | 15 | 3.5 | 5.2 | 0.00 | 0.00 | 0.00 | 62 | 1018.9 |
| 20260507090945 | 68 | 330 | 2.6 | 7.0 | 0.00 | 0.00 | 0.00 | 62 | 1018.9 |
| 20260507090445 | 68 | 321 | 2.6 | 7.0 | 0.00 | 0.00 | 0.00 | 60 | 1018.8 |
| 20260507090045 | 68 | 347 | 2.6 | 5.2 | 0.00 | 0.00 | 0.00 | 59 | 1018.6 |
| 20260507085954 | 68 | 307 | 3.5 | 5.2 | 0.00 | 0.00 | 0.00 | 59 | 1018.8 |
| 20260507085446 | 69 | 347 | 1.7 | 4.3 | 0.00 | 0.00 | 0.00 | 59 | 1018.7 |
| 20260507084945 | 69 | 328 | 1.7 | 4.3 | 0.00 | 0.00 | 0.00 | 57 | 1018.6 |
| 20260507084551 | 69 | 298 | 0.9 | 7.0 | 0.00 | 0.00 | 0.00 | 57 | 1018.4 |
| 20260507084455 | 69 | 302 | 1.7 | 7.0 | 0.00 | 0.00 | 0.00 | 59 | 1018.7 |
| 20260507083946 | 69 | 14 | 2.6 | 5.2 | 0.00 | 0.00 | 0.00 | 57 | 1018.6 |
| 20260507083445 | 69 | 319 | 1.7 | 5.2 | 0.00 | 0.00 | 0.00 | 58 | 1018.5 |
| 20260507083050 | 69 | 3 | 1.7 | 4.3 | 0.00 | 0.00 | 0.00 | 59 | 1018.4 |
| 20260507083005 | 69 | 314 | 2.6 | 4.3 | 0.00 | 0.00 | 0.00 | 59 | 1018.5 |
| 20260507082458 | 69 | 37 | 0.0 | 3.5 | 0.00 | 0.00 | 0.00 | 59 | 1018.5 |
| 20260507081946 | 69 | 316 | 0.9 | 3.5 | 0.00 | 0.00 | 0.00 | 59 | 1018.4 |
| 20260507081545 | 70 | 293 | 1.7 | 3.5 | 0.00 | 0.00 | 0.00 | 58 | 1018.3 |
| 20260507081455 | 70 | 317 | 2.6 | 3.5 | 0.00 | 0.00 | 0.00 | 58 | 1018.4 |
| 20260507080946 | 70 | 297 | 0.9 | 3.5 | 0.00 | 0.00 | 0.00 | 60 | 1018.4 |
| 20260507080446 | 69 | 282 | 1.7 | 3.5 | 0.00 | 0.00 | 0.00 | 58 | 1018.4 |
| 20260507080111 | 69 | 268 | 0.9 | 3.5 | 0.00 | 0.00 | 0.00 | 60 | 1018.2 |
| 20260507075956 | 69 | 255 | 0.9 | 3.5 | 0.00 | 0.00 | 0.00 | 60 | 1018.4 |
| 20260507075456 | 69 | 282 | 1.7 | 3.5 | 0.00 | 0.00 | 0.00 | 58 | 1018.3 |
| 20260507074945 | 68 | 292 | 1.7 | 5.2 | 0.00 | 0.00 | 0.00 | 60 | 1018.2 |
| 20260507074547 | 68 | 255 | 0.9 | 5.2 | 0.00 | 0.00 | 0.00 | 60 | 1018.0 |
| 20260507074455 | 68 | 20 | 1.7 | 5.2 | 0.00 | 0.00 | 0.00 | 60 | 1018.1 |
| 20260507073946 | 68 | 317 | 1.7 | 3.5 | 0.00 | 0.00 | 0.00 | 60 | 1018.1 |
| 20260507073446 | 68 | 268 | 1.7 | 4.3 | 0.00 | 0.00 | 0.00 | 60 | 1018.0 |
| 20260507073053 | 69 | 315 | 1.7 | 4.3 | 0.00 | 0.00 | 0.00 | 60 | 1017.8 |
| 20260507072956 | 69 | 302 | 1.7 | 4.3 | 0.00 | 0.00 | 0.00 | 59 | 1018.0 |
| 20260507072446 | 69 | 257 | 0.9 | 3.5 | 0.00 | 0.00 | 0.00 | 61 | 1017.9 |
| 20260507071957 | 68 | 285 | 0.9 | 3.5 | 0.00 | 0.00 | 0.00 | 61 | 1017.9 |
| 20260507071559 | 68 | 297 | 0.9 | 3.5 | 0.00 | 0.00 | 0.00 | 62 | 1017.6 |
| 20260507071506 | 67 | 23 | 0.9 | 3.5 | 0.00 | 0.00 | 0.00 | 62 | 1017.8 |
| 20260507070946 | 67 | 316 | 0.9 | 4.3 | 0.00 | 0.00 | 0.00 | 64 | 1017.9 |
| 20260507070446 | 67 | 73 | 1.7 | 4.3 | 0.00 | 0.00 | 0.00 | 66 | 1017.9 |
| 20260507070046 | 67 | 304 | 0.9 | 4.3 | 0.00 | 0.00 | 0.00 | 67 | 1017.8 |
| 20260507065955 | 67 | 304 | 1.7 | 4.3 | 0.00 | 0.00 | 0.00 | 67 | 1018.0 |
| 20260507065446 | 67 | 306 | 2.6 | 4.3 | 0.00 | 0.00 | 0.00 | 67 | 1018.0 |
| 20260507064946 | 67 | 319 | 0.9 | 3.5 | 0.00 | 0.00 | 0.00 | 65 | 1018.0 |
| 20260507064551 | 68 | 286 | 0.9 | 3.5 | 0.00 | 0.00 | 0.00 | 63 | 1017.9 |
| 20260507064506 | 68 | 285 | 1.7 | 3.5 | 0.00 | 0.00 | 0.00 | 63 | 1018.0 |
| 20260507063946 | 68 | 356 | 0.9 | 2.6 | 0.00 | 0.00 | 0.00 | 64 | 1018.1 |
| 20260507063446 | 68 | 304 | 1.7 | 4.3 | 0.00 | 0.00 | 0.00 | 64 | 1018.1 |
| 20260507063048 | 68 | 328 | 0.9 | 4.3 | 0.00 | 0.00 | 0.00 | 63 | 1017.9 |
| 20260507062955 | 68 | 329 | 1.7 | 4.3 | 0.00 | 0.00 | 0.00 | 63 | 1018.1 |
| 20260507062446 | 68 | 240 | 0.9 | 2.6 | 0.00 | 0.00 | 0.00 | 61 | 1018.0 |
| 20260507061946 | 68 | 239 | 0.9 | 2.6 | 0.00 | 0.00 | 0.00 | 62 | 1018.0 |
| 20260507061546 | 68 | 262 | 0.9 | 2.6 | 0.00 | 0.00 | 0.00 | 62 | 1017.7 |
| 20260507061506 | 68 | 286 | 1.7 | 2.6 | 0.00 | 0.00 | 0.00 | 61 | 1017.9 |
| 20260507060946 | 69 | 60 | 0.0 | 1.7 | 0.00 | 0.00 | 0.00 | 64 | 1017.8 |
| 20260507060446 | 69 | 51 | 0.0 | 1.7 | 0.00 | 0.00 | 0.00 | 64 | 1017.8 |